LVFKG SABE-SAAR

Flight info

Callsign LVFKG
Flight time 0h 44m
Altitude 14000
Route ATOVO4B ATOVO W5 ESKON
Aircraft LJ35/M-SGHRWXY/SB1

Departure

Time 2026-04-26 22:06
Airport Aeroparque Jorge Newbery (SABE)

Arrival

Time 2026-04-26 22:50
Airport Rosario Islas Malvinas International Airport (SAAR)
Time Latitude Longitude Altitude Speed Heading
2026-04-26 21:44 -34.56259 -58.41292 21 ft 0 kts 214°
2026-04-26 21:49 -34.56258 -58.41292 21 ft 0 kts 214°
2026-04-26 21:50 -34.56258 -58.41291 21 ft 0 kts 214°
2026-04-26 22:00 -34.56259 -58.41292 21 ft 1 kts 215°
2026-04-26 22:00 -34.56280 -58.41309 22 ft 5 kts 201°
2026-04-26 22:00 -34.56311 -58.41270 21 ft 9 kts 125°
2026-04-26 22:01 -34.56358 -58.41186 23 ft 15 kts 126°
2026-04-26 22:01 -34.56409 -58.41092 21 ft 13 kts 117°
2026-04-26 22:01 -34.56452 -58.41018 22 ft 12 kts 126°
2026-04-26 22:01 -34.56481 -58.40964 21 ft 10 kts 122°
2026-04-26 22:02 -34.56519 -58.40894 22 ft 10 kts 113°
2026-04-26 22:02 -34.56499 -58.40819 21 ft 11 kts 66°
2026-04-26 22:02 -34.56485 -58.40781 21 ft 0 kts 65°
2026-04-26 22:04 -34.56485 -58.40782 21 ft 0 kts 65°
2026-04-26 22:04 -34.56485 -58.40780 21 ft 1 kts 65°
2026-04-26 22:04 -34.56469 -58.40741 20 ft 9 kts 65°
2026-04-26 22:04 -34.56427 -58.40675 19 ft 7 kts 348°
2026-04-26 22:05 -34.56407 -58.40708 19 ft 0 kts 306°
2026-04-26 22:05 -34.56403 -58.40715 19 ft 7 kts 305°
2026-04-26 22:06 -34.56241 -58.41005 22 ft 97 kts 304°
2026-04-26 22:06 -34.55630 -58.42065 316 ft 201 kts 302°
2026-04-26 22:06 -34.54718 -58.43679 1103 ft 241 kts 299°
2026-04-26 22:06 -34.53705 -58.45243 1720 ft 233 kts 307°
2026-04-26 22:07 -34.52613 -58.46622 2297 ft 221 kts 304°
2026-04-26 22:07 -34.51594 -58.47964 2870 ft 211 kts 303°
2026-04-26 22:07 -34.50501 -58.49136 3430 ft 214 kts 320°
2026-04-26 22:07 -34.49054 -58.49687 4012 ft 221 kts 341°
2026-04-26 22:08 -34.47514 -58.49908 4460 ft 223 kts 344°
2026-04-26 22:08 -34.46001 -58.50155 4876 ft 222 kts 341°
2026-04-26 22:08 -34.44478 -58.50453 5298 ft 221 kts 341°
2026-04-26 22:08 -34.42952 -58.50754 5720 ft 221 kts 340°
2026-04-26 22:09 -34.41587 -58.51439 6142 ft 211 kts 312°
2026-04-26 22:09 -34.40684 -58.52801 6572 ft 210 kts 285°
2026-04-26 22:09 -34.40170 -58.54499 7021 ft 222 kts 282°
2026-04-26 22:09 -34.39470 -58.56252 7467 ft 239 kts 292°
2026-04-26 22:10 -34.38525 -58.57912 7927 ft 237 kts 298°
2026-04-26 22:10 -34.37566 -58.59509 8381 ft 231 kts 296°
2026-04-26 22:10 -34.36668 -58.61099 8826 ft 226 kts 295°
2026-04-26 22:10 -34.35806 -58.62649 9272 ft 223 kts 296°
2026-04-26 22:11 -34.34944 -58.64188 9724 ft 220 kts 296°
2026-04-26 22:11 -34.34090 -58.65703 10146 ft 216 kts 296°
2026-04-26 22:11 -34.33244 -58.67203 10556 ft 213 kts 295°
2026-04-26 22:11 -34.32414 -58.68677 10966 ft 210 kts 295°
2026-04-26 22:12 -34.31597 -58.70126 11389 ft 206 kts 295°
2026-04-26 22:12 -34.30799 -58.71540 11810 ft 203 kts 294°
2026-04-26 22:12 -34.30012 -58.72936 12243 ft 199 kts 294°
2026-04-26 22:12 -34.29238 -58.74306 12671 ft 195 kts 293°
2026-04-26 22:13 -34.28481 -58.75646 13113 ft 191 kts 292°
2026-04-26 22:13 -34.27737 -58.76968 13562 ft 192 kts 292°
2026-04-26 22:13 -34.26975 -58.78325 13991 ft 197 kts 292°
2026-04-26 22:13 -34.26167 -58.79777 13980 ft 220 kts 293°
2026-04-26 22:14 -34.25283 -58.81341 13980 ft 232 kts 294°
2026-04-26 22:14 -34.24350 -58.82970 13980 ft 238 kts 294°
2026-04-26 22:14 -34.23396 -58.84649 13978 ft 243 kts 294°
2026-04-26 22:14 -34.22434 -58.86354 13978 ft 247 kts 294°
2026-04-26 22:15 -34.21455 -58.88081 13980 ft 251 kts 294°
2026-04-26 22:15 -34.20465 -58.89825 13979 ft 253 kts 294°
2026-04-26 22:15 -34.19474 -58.91571 13983 ft 255 kts 294°
2026-04-26 22:15 -34.18468 -58.93343 13980 ft 256 kts 294°
2026-04-26 22:16 -34.17456 -58.95125 13986 ft 257 kts 294°
2026-04-26 22:16 -34.16442 -58.96913 13984 ft 259 kts 294°
2026-04-26 22:16 -34.15422 -58.98708 13989 ft 259 kts 294°
2026-04-26 22:16 -34.14400 -59.00505 13982 ft 260 kts 294°
2026-04-26 22:17 -34.13370 -59.02316 13984 ft 260 kts 294°
2026-04-26 22:17 -34.12343 -59.04121 13988 ft 261 kts 294°
2026-04-26 22:17 -34.11317 -59.05924 13988 ft 261 kts 294°
2026-04-26 22:17 -34.10302 -59.07706 13982 ft 261 kts 294°
2026-04-26 22:18 -34.09267 -59.09521 13983 ft 261 kts 294°
2026-04-26 22:18 -34.08235 -59.11333 13989 ft 262 kts 294°
2026-04-26 22:18 -34.07210 -59.13128 13987 ft 262 kts 294°
2026-04-26 22:18 -34.06172 -59.14941 13983 ft 263 kts 295°
2026-04-26 22:19 -34.04992 -59.16663 13984 ft 267 kts 299°
2026-04-26 22:19 -34.03801 -59.18372 13985 ft 266 kts 298°
2026-04-26 22:19 -34.02623 -59.20081 13985 ft 265 kts 298°
2026-04-26 22:19 -34.01441 -59.21789 13989 ft 265 kts 298°
2026-04-26 22:20 -34.00262 -59.23487 13989 ft 264 kts 298°
2026-04-26 22:20 -33.99480 -59.24611 13988 ft 264 kts 298°
2026-04-26 22:20 -33.97902 -59.26882 13995 ft 264 kts 298°
2026-04-26 22:20 -33.96726 -59.28573 13997 ft 263 kts 298°
2026-04-26 22:21 -33.95549 -59.30265 13994 ft 263 kts 298°
2026-04-26 22:21 -33.94374 -59.31953 13997 ft 263 kts 298°
2026-04-26 22:21 -33.93201 -59.33638 13994 ft 263 kts 298°
2026-04-26 22:21 -33.92027 -59.35323 14000 ft 262 kts 299°
2026-04-26 22:22 -33.90855 -59.37006 13999 ft 262 kts 298°
2026-04-26 22:22 -33.89680 -59.38688 14001 ft 262 kts 298°
2026-04-26 22:22 -33.88510 -59.40367 14004 ft 262 kts 298°
2026-04-26 22:22 -33.87336 -59.42049 14007 ft 261 kts 298°
2026-04-26 22:23 -33.86166 -59.43725 14007 ft 261 kts 298°
2026-04-26 22:23 -33.85012 -59.45376 14007 ft 261 kts 298°
2026-04-26 22:23 -33.83842 -59.47049 14009 ft 261 kts 298°
2026-04-26 22:23 -33.83053 -59.48179 14011 ft 261 kts 299°
2026-04-26 22:24 -33.81885 -59.49847 14013 ft 261 kts 299°
2026-04-26 22:24 -33.80718 -59.51516 14009 ft 261 kts 299°
2026-04-26 22:24 -33.79548 -59.53187 14018 ft 261 kts 299°
2026-04-26 22:24 -33.78393 -59.54837 14016 ft 261 kts 299°
2026-04-26 22:25 -33.77224 -59.56503 14016 ft 261 kts 299°
2026-04-26 22:25 -33.76056 -59.58170 14019 ft 261 kts 299°
2026-04-26 22:25 -33.74888 -59.59835 14021 ft 261 kts 299°
2026-04-26 22:25 -33.73716 -59.61505 14019 ft 261 kts 299°
2026-04-26 22:26 -33.72546 -59.63172 14022 ft 261 kts 299°
2026-04-26 22:26 -33.71377 -59.64835 14021 ft 261 kts 299°
2026-04-26 22:26 -33.70207 -59.66500 14024 ft 261 kts 299°
2026-04-26 22:26 -33.69035 -59.68169 14029 ft 261 kts 300°
2026-04-26 22:27 -33.67863 -59.69834 14029 ft 261 kts 299°
2026-04-26 22:27 -33.66689 -59.71502 14028 ft 261 kts 300°
2026-04-26 22:27 -33.65527 -59.73153 14026 ft 262 kts 300°
2026-04-26 22:27 -33.64336 -59.74843 14034 ft 261 kts 300°
2026-04-26 22:28 -33.63175 -59.76491 14032 ft 262 kts 300°
2026-04-26 22:28 -33.61998 -59.78160 14034 ft 262 kts 300°
2026-04-26 22:28 -33.60820 -59.79830 14033 ft 262 kts 300°
2026-04-26 22:28 -33.59644 -59.81496 14039 ft 262 kts 300°
2026-04-26 22:29 -33.58466 -59.83166 14039 ft 262 kts 300°
2026-04-26 22:29 -33.57286 -59.84836 14037 ft 262 kts 300°
2026-04-26 22:29 -33.56106 -59.86506 14036 ft 262 kts 300°
2026-04-26 22:29 -33.54925 -59.88177 14041 ft 263 kts 300°
2026-04-26 22:30 -33.53745 -59.89845 14045 ft 263 kts 300°
2026-04-26 22:30 -33.52561 -59.91518 14050 ft 263 kts 300°
2026-04-26 22:30 -33.51378 -59.93189 14038 ft 263 kts 300°
2026-04-26 22:30 -33.50189 -59.94868 14045 ft 263 kts 300°
2026-04-26 22:31 -33.49019 -59.96519 14043 ft 264 kts 300°
2026-04-26 22:31 -33.47826 -59.98201 14052 ft 264 kts 300°
2026-04-26 22:31 -33.46635 -59.99880 14051 ft 265 kts 301°
2026-04-26 22:31 -33.45442 -60.01562 14051 ft 265 kts 301°
2026-04-26 22:32 -33.44244 -60.03249 14053 ft 265 kts 301°
2026-04-26 22:32 -33.43049 -60.04933 14052 ft 266 kts 301°
2026-04-26 22:32 -33.41851 -60.06618 14052 ft 266 kts 301°
2026-04-26 22:32 -33.40648 -60.08310 14058 ft 266 kts 301°
2026-04-26 22:33 -33.39447 -60.09997 14057 ft 267 kts 301°
2026-04-26 22:33 -33.37055 -60.13359 14059 ft 267 kts 301°
2026-04-26 22:33 -33.35847 -60.15053 14066 ft 266 kts 301°
2026-04-26 22:34 -33.34643 -60.16744 14062 ft 267 kts 301°
2026-04-26 22:34 -33.33439 -60.18433 14061 ft 267 kts 301°
2026-04-26 22:34 -33.32235 -60.20121 14064 ft 267 kts 301°
2026-04-26 22:34 -33.31029 -60.21811 14068 ft 267 kts 302°
2026-04-26 22:35 -33.29822 -60.23502 14065 ft 268 kts 302°
2026-04-26 22:35 -33.28612 -60.25195 14071 ft 268 kts 302°
2026-04-26 22:35 -33.27251 -60.26763 14073 ft 278 kts 314°
2026-04-26 22:35 -33.25603 -60.27950 13966 ft 277 kts 323°
2026-04-26 22:36 -33.23943 -60.29017 13686 ft 262 kts 318°
2026-04-26 22:36 -33.22443 -60.30166 13384 ft 251 kts 316°
2026-04-26 22:36 -33.20993 -60.31257 13083 ft 246 kts 319°
2026-04-26 22:36 -33.19535 -60.32289 12781 ft 241 kts 319°
2026-04-26 22:37 -33.18106 -60.33298 12487 ft 237 kts 319°
2026-04-26 22:37 -33.16704 -60.34302 12196 ft 233 kts 319°
2026-04-26 22:37 -33.15320 -60.35295 11909 ft 231 kts 319°
2026-04-26 22:37 -33.13949 -60.36275 11620 ft 229 kts 319°
2026-04-26 22:38 -33.12588 -60.37250 11340 ft 227 kts 319°
2026-04-26 22:38 -33.11231 -60.38223 11066 ft 226 kts 319°
2026-04-26 22:38 -33.09882 -60.39184 10791 ft 225 kts 319°
2026-04-26 22:38 -33.08540 -60.40143 10516 ft 224 kts 319°
2026-04-26 22:39 -33.07217 -60.41088 10256 ft 224 kts 320°
2026-04-26 22:39 -33.05877 -60.42043 9993 ft 224 kts 320°
2026-04-26 22:39 -33.04542 -60.42996 9706 ft 224 kts 320°
2026-04-26 22:39 -33.03206 -60.43948 9411 ft 224 kts 321°
2026-04-26 22:40 -33.01865 -60.44904 9121 ft 224 kts 321°
2026-04-26 22:40 -33.00525 -60.45858 8841 ft 224 kts 322°
2026-04-26 22:40 -32.99182 -60.46812 8560 ft 225 kts 322°
2026-04-26 22:40 -32.97833 -60.47772 8276 ft 225 kts 323°
2026-04-26 22:41 -32.96499 -60.48722 8002 ft 226 kts 323°
2026-04-26 22:41 -32.95148 -60.49681 7730 ft 227 kts 324°
2026-04-26 22:41 -32.93787 -60.50648 7459 ft 227 kts 324°
2026-04-26 22:41 -32.92426 -60.51615 7188 ft 228 kts 325°
2026-04-26 22:42 -32.91065 -60.52586 6919 ft 229 kts 325°
2026-04-26 22:42 -32.89695 -60.53561 6658 ft 229 kts 326°
2026-04-26 22:42 -32.88320 -60.54540 6387 ft 230 kts 326°
2026-04-26 22:42 -32.86945 -60.55516 6104 ft 230 kts 326°
2026-04-26 22:43 -32.85565 -60.56493 5826 ft 231 kts 326°
2026-04-26 22:43 -32.84183 -60.57469 5551 ft 231 kts 327°
2026-04-26 22:43 -32.82819 -60.58434 5278 ft 231 kts 327°
2026-04-26 22:43 -32.81433 -60.59417 5005 ft 231 kts 327°
2026-04-26 22:44 -32.80050 -60.60396 4730 ft 231 kts 327°
2026-04-26 22:44 -32.78668 -60.61374 4451 ft 231 kts 327°
2026-04-26 22:44 -32.77288 -60.62348 4173 ft 231 kts 327°
2026-04-26 22:44 -32.75910 -60.63324 3899 ft 230 kts 327°
2026-04-26 22:45 -32.74600 -60.64402 3611 ft 228 kts 313°
2026-04-26 22:45 -32.73750 -60.65959 3310 ft 224 kts 288°
2026-04-26 22:45 -32.73460 -60.67728 3033 ft 220 kts 274°
2026-04-26 22:45 -32.73299 -60.69501 3019 ft 213 kts 275°
2026-04-26 22:46 -32.73083 -60.71247 3016 ft 214 kts 274°
2026-04-26 22:46 -32.73246 -60.72970 3019 ft 208 kts 248°
2026-04-26 22:46 -32.74043 -60.74350 3017 ft 202 kts 220°
2026-04-26 22:46 -32.75268 -60.75067 3012 ft 194 kts 192°
2026-04-26 22:47 -32.76595 -60.75315 2710 ft 189 kts 191°
2026-04-26 22:47 -32.77855 -60.75611 2458 ft 182 kts 192°
2026-04-26 22:47 -32.79094 -60.75885 2215 ft 180 kts 192°
2026-04-26 22:47 -32.80325 -60.76170 1980 ft 179 kts 192°
2026-04-26 22:48 -32.81540 -60.76449 1744 ft 177 kts 192°
2026-04-26 22:48 -32.82741 -60.76724 1509 ft 174 kts 192°
2026-04-26 22:48 -32.83918 -60.76994 1274 ft 168 kts 192°
2026-04-26 22:48 -32.85019 -60.77245 1036 ft 160 kts 192°
2026-04-26 22:49 -32.86090 -60.77492 792 ft 154 kts 193°
2026-04-26 22:49 -32.87126 -60.77722 567 ft 149 kts 193°
2026-04-26 22:49 -32.88127 -60.77955 318 ft 141 kts 195°
2026-04-26 22:49 -32.89046 -60.78169 114 ft 128 kts 194°
2026-04-26 22:50 -32.89853 -60.78356 84 ft 106 kts 192°
2026-04-26 22:50 -32.90533 -60.78510 87 ft 95 kts 191°
2026-04-26 22:50 -32.90997 -60.78614 88 ft 39 kts 191°
2026-04-26 22:50 -32.91268 -60.78675 87 ft 41 kts 191°
2026-04-26 22:51 -32.91523 -60.78734 87 ft 25 kts 190°
2026-04-26 22:51 -32.91677 -60.78722 87 ft 18 kts 155°
2026-04-26 22:51 -32.91781 -60.78609 88 ft 23 kts 128°
2026-04-26 22:51 -32.91782 -60.78461 87 ft 21 kts 77°
2026-04-26 22:52 -32.91746 -60.78282 86 ft 15 kts 75°
2026-04-26 22:52 -32.91716 -60.78183 88 ft 9 kts 30°
2026-04-26 22:52 -32.91639 -60.78163 89 ft 15 kts 23°
2026-04-26 22:52 -32.91629 -60.78120 87 ft 8 kts 145°
2026-04-26 22:53 -32.91646 -60.78096 89 ft 0 kts 114°